Change the Weather History Date:

Saturday, September 29, 2012

  Actual Average Record
Temperature  
Mean Temperature 58 °F -  
Max Temperature 71 °F 62 °F 75 °F (2010)
Min Temperature 46 °F 41 °F 42 °F (2011)
Degree Days  
Heating Degree Days 6    
Growing Degree Days 8 (Base 50)    
Moisture  
Dew Point 40 °F    
Average Humidity 47    
Maximum Humidity 71    
Minimum Humidity 20    
Precipitation  
Precipitation 0.00 in 0.06 in - ()
Sea Level Pressure  
Sea Level Pressure 30.32 in    
Wind  
Wind Speed 5 mph ()    
Max Wind Speed 10 mph    
Max Gust Speed -    
Visibility 6.1 miles    
Events      
Averages and records for this station are not official NWS values.
T = Trace of Precipitation, MM = Missing Value Source: Averaged Metar Reports

Daily Weather History Graph

Daily Weather History Graph

Search for Another Location

Airport or City:

Trip Planner

Search our weather history database for the weather conditions in past years. The results will help you decide how hot, cold, wet, or windy it might be!

Date:

Astronomy

Sep. 29, 2012 Rise Set
Actual Time 6:00 AM EEST 5:52 PM EEST
Civil Twilight 5:34 AM EEST 6:18 PM EEST
Nautical Twilight 5:03 AM EEST 6:49 PM EEST
Astronomical Twilight 4:32 AM EEST 7:20 PM EEST
Moon 5:13 PM EEST (9/29) 5:09 AM EEST (9/29)
Length of Visible Light 12h 44m
Length of Day
11h 51m
Waxing Gibbous, 99% of the Moon is Illuminated
Sep 29
Waxing Gibbous
Sep 30
Full
Oct 8
Last Quarter
Oct 15
New
Oct 22
First Quarter

Hourly Weather History & Observations

Time (EEST) Temp. Dew Point Humidity Pressure Visibility Wind Dir Wind Speed Gust Speed Precip Events Conditions
12:50 AM 57.2 °F 41.0 °F 55% 30.33 in - NE 5.8 mph - N/A   Clear
1:50 AM 55.4 °F 39.2 °F 54% 30.33 in - Variable 3.5 mph - N/A   Clear
3:00 AM 57 °F 39 °F 40%  in 6 mi NE 10.4 mph - -  
3:50 AM 50.0 °F 35.6 °F 58% 30.33 in - Variable 2.3 mph - N/A   Clear
4:50 AM 51.8 °F 39.2 °F 62% 30.33 in - ESE 3.5 mph - N/A   Clear
5:50 AM 48.2 °F 39.2 °F 71% 30.33 in - East 3.5 mph - N/A   Clear
6:50 AM 51.8 °F 35.6 °F 54% 30.33 in - ENE 3.5 mph - N/A   Clear
7:50 AM 62.6 °F 37.4 °F 39% 30.36 in - NE 4.6 mph - N/A   Clear
8:50 AM 68.0 °F 37.4 °F 33% 30.36 in - Variable 2.3 mph - N/A   Clear
9:00 AM 68 °F 36 °F 20%  in 6 mi East 2.3 mph - -  
9:50 AM 68.0 °F 39.2 °F 35% 30.36 in - WNW 5.8 mph - N/A   Clear
10:50 AM 69.8 °F 39.2 °F 33% 30.36 in - West 6.9 mph - N/A   Clear
11:50 AM 69.8 °F 42.8 °F 38% 30.33 in - West 9.2 mph - N/A   Clear
12:50 PM 69.8 °F 46.4 °F 43% 30.33 in - WNW 10.4 mph - N/A   Clear
1:50 PM 69.8 °F 50.0 °F 49% 30.30 in - WNW 9.2 mph - N/A   Clear
2:50 PM 69.8 °F 46.4 °F 43% 30.30 in - West 9.2 mph - N/A   Clear
3:00 PM 70 °F 47 °F 33%  in 6 mi West 9.2 mph - -  
3:50 PM 71.6 °F 46.4 °F 41% 30.30 in - West 8.1 mph - N/A   Clear
4:50 PM 68.0 °F 39.2 °F 35% 30.27 in - SW 5.8 mph - N/A   Clear
5:50 PM 64.4 °F 41.0 °F 42% 30.27 in - West 2.3 mph - N/A   Clear
6:50 PM 57.2 °F 42.8 °F 59% 30.27 in - SE 3.5 mph - N/A   Clear
7:50 PM 53.6 °F 42.8 °F 67% 30.30 in 6.2 mi East 2.3 mph - N/A   Partly Cloudy
8:50 PM 55.4 °F 37.4 °F 51% 30.30 in 6.2 mi East 2.3 mph - N/A   Partly Cloudy
9:00 PM 55 °F 37 °F 40%  in 6 mi East 2.3 mph - -   Scattered Clouds
9:50 PM 51.8 °F 35.6 °F 54% 30.30 in 6.2 mi ENE 2.3 mph - N/A   Partly Cloudy
10:50 PM 50.0 °F 35.6 °F 58% 30.30 in 6.2 mi SE 2.3 mph - N/A   Partly Cloudy
11:50 PM 50.0 °F 33.8 °F 54% 30.27 in 6.2 mi East 3.5 mph - N/A   Partly Cloudy